sat.trackr.live / text

‹ back to catalog

ONEWEB-0671

NORAD 55830 · 2023-029AL

PAYLOAD ACTIVE UNKNOWN

§ Identity

Operator
Country
UK
Launch date
2023-03-09
Launch site
AFETR
Launch vehicle
Mass (kg)
RCS (m²)

Purposes: comms

External: N2YO · Heavens-Above · Gunter

§ Orbital elements

Epoch: 2026-05-25T04:00:13.808736Z

Period
109.11 min
Inclination
87.9149°
Eccentricity
0.0001795
Mean motion
13.19726743 rev/d
Perigee alt
1,184.4 km
Apogee alt
1,187.1 km
Semi-major
7,563.9 km
B*
9.1152e-5
RAAN
309.5654°
Arg perigee
87.8933°
Mean anomaly
272.2405°
Rev number
15,586

§ Raw data

ONEWEB-06711 55830U 23029AL  26145.16682649  .00000049  00000+0  91152-4 0  99912 55830  87.9149 309.5654 0001795  87.8933 272.2405 13.19726743155863

JSON: /api/v1/satellites/55830 · /tle

For live sub-satellite position, see the globe view (requires WebGL).

§ Visibility from observer

Set your observer location to see the next 7 days of passes ≥ 10°. The values pass through the URL so the page stays shareable.

No JS? Fill the form by hand. The geolocation button needs JavaScript.